OPS 4467 A

Satellite information

Favourite Embed

Satellite Type and Status

PAYLOADIN ORBIT

Key statistics

Satellite OPS 4467 A at a glance.

Uptime

22361

Days in orbit

Revolutions

≈ 14.2

Per day

Orbit

SSO

Sun Synchronous Orbit

Inclination

99.8

Latest

Satellite identification and parameters

Extended collection of information and parameters for OPS 4467 A.

Object identification

Identified? True

Debris? False

Object name: OPS 4467 A

International designator: 1964-031A

Object number (NORAD): 812

Object ID (CCSDS): 812

Country: UNITED STATES OF AMERICA (US)

Current information (Y/N): Y

RCS size: MEDIUM

Orbital parameters

Period: 101.089 minutes

Inclination: 99.7834 deg

SMA: 7188.339 km

Apoapsis: 814.445 km

Periapsis: 805.962 km

RAAN: 7.7281 deg

Eccentricy: 0.00059004

Argument of periapsis: 154.4263 deg

Mean anomaly: 205.7206 deg

Mean motion: 14.24491803 rev/day

Mean motion (dot): 0.00000173 rev/day2

B* drag term: 0.00009794748 1/REarth

Two-line elements (TLE)

Creation date: Sept. 7, 2025, 3:09 a.m.

Reference frame: TEME

Reference center: EARTH

Epoch: Sept. 6, 2025, 10:01 p.m. UTC

TLE line 0: 0 OPS 4467 A

TLE line 1: 1 00812U 64031A 25249.91762186 .00000173 00000-0 97947-4 0 9998

TLE line 2: 2 00812 99.7834 7.7281 0005900 154.4263 205.7206 14.24491803175963

Live tracking on map

Real-time ground track for satellite OPS 4467 A.

In-orbit conjunctions

There are no conjunctions computed for OPS 4467 A, at the moment. Check back to stay up to date, as we update our databases every day.

Go to all conjunctions

Associated space launch

The DSAP-1 (Defense Satellite Application Program Block 1) satellites series, also known as P-35, was the first series of military meteorologal satellites of the USA.

OPS 4467 A was lifted into orbit during the mission ‘Thor SLV-2 Agena D | DSAP-1 F8 & F9’, on board a Thor SLV-2 Agena D space rocket.

The launch took place on June 18, 1964, 4:56 a.m. from Space Launch Complex 1W.

For more information about the launch, click the button.

Launch to space Thor SLV-2 Agena D | DSAP-1 F8 & F9
Thor SLV-2 Agena D | DSAP-1 F8 & F9

Agency: N/A

Status: Launch Successful

Launch date: June 18, 1964, 4:56 a.m. UTC

Rocket: Thor SLV-2 Agena D

Launch pad: Space Launch Complex 1W

Location: Vandenberg SFB, CA, USA

...

Latest news about this satellite

There are no fresh news available about this satellite. Check back as we update our databases every day.


Newsletter sign-up

Weekly statistics, charts and insights to help you stay on top of the space industry.